TimeEST,TemperatureF,Dew PointF,Humidity,Sea Level PressureIn,VisibilityMPH,Wind Direction,Wind SpeedMPH,Gust SpeedMPH,PrecipitationIn,Events,Conditions,WindDirDegrees,DateUTC
12:09 AM,50.0,46.4,87,30.06,8.0,North,6.9,-,N/A,,Overcast,10,2012-12-09 05:09:00
12:53 AM,50.0,44.1,80,30.07,9.0,NNE,11.5,-,N/A,,Overcast,30,2012-12-09 05:53:00
1:24 AM,48.2,44.6,87,30.07,10.0,NE,10.4,-,N/A,,Overcast,40,2012-12-09 06:24:00
1:53 AM,48.0,44.1,86,30.07,10.0,NNE,8.1,-,N/A,,Overcast,30,2012-12-09 06:53:00
2:07 AM,48.2,44.6,87,30.07,9.0,NNE,6.9,-,0.00,Rain,Light Rain,20,2012-12-09 07:07:00
2:53 AM,46.9,44.1,90,30.09,3.0,North,8.1,-,0.03,Rain,Rain,10,2012-12-09 07:53:00
3:11 AM,46.4,44.6,93,30.09,6.0,Variable,4.6,-,0.00,Rain,Light Rain,0,2012-12-09 08:11:00
3:53 AM,46.0,43.0,89,30.08,4.0,NNE,8.1,-,0.03,Rain,Light Rain,30,2012-12-09 08:53:00
4:53 AM,45.0,43.0,93,30.07,5.0,NE,9.2,-,0.01,Rain,Light Rain,40,2012-12-09 09:53:00
5:53 AM,45.0,42.1,90,30.09,7.0,North,5.8,-,0.02,Rain,Light Rain,350,2012-12-09 10:53:00
6:17 AM,44.6,42.8,93,30.09,6.0,NNE,6.9,-,0.01,Rain,Light Rain,30,2012-12-09 11:17:00
6:53 AM,44.1,42.1,93,30.09,5.0,NE,6.9,-,0.03,Rain,Light Rain,50,2012-12-09 11:53:00
7:05 AM,44.6,42.8,93,30.08,6.0,ENE,6.9,-,0.01,Rain,Light Rain,60,2012-12-09 12:05:00
7:25 AM,44.6,42.8,93,30.09,2.0,NE,5.8,-,0.08,Rain,Rain,50,2012-12-09 12:25:00
7:53 AM,44.1,42.1,93,30.10,3.0,NNE,5.8,-,0.14,Rain,Light Rain,30,2012-12-09 12:53:00
8:14 AM,44.6,42.8,93,30.09,1.8,ENE,5.8,-,0.02,Rain,Light Rain,70,2012-12-09 13:14:00
8:27 AM,44.6,42.8,93,30.10,3.0,Calm,Calm,-,0.02,Rain,Light Rain,0,2012-12-09 13:27:00
8:53 AM,44.1,42.1,93,30.10,3.0,NE,4.6,-,0.02,,Overcast,40,2012-12-09 13:53:00
9:53 AM,45.0,43.0,93,30.08,6.0,East,6.9,-,N/A,,Overcast,90,2012-12-09 14:53:00
10:53 AM,46.0,44.1,93,30.06,6.0,East,5.8,-,N/A,,Overcast,80,2012-12-09 15:53:00
11:53 AM,46.9,45.0,93,30.03,5.0,East,5.8,-,N/A,,Overcast,90,2012-12-09 16:53:00
12:53 PM,48.0,46.0,93,29.99,5.0,East,4.6,-,N/A,,Overcast,80,2012-12-09 17:53:00
1:53 PM,48.9,46.9,93,29.96,3.0,Calm,Calm,-,0.02,Rain,Light Rain,0,2012-12-09 18:53:00
2:32 PM,50.0,48.2,94,29.95,1.5,Calm,Calm,-,0.03,Rain,Light Rain,0,2012-12-09 19:32:00
2:53 PM,50.0,48.0,93,29.95,1.0,East,6.9,-,0.11,Rain,Heavy Rain,90,2012-12-09 19:53:00
3:29 PM,51.8,50.0,94,29.94,1.5,ESE,3.5,-,0.00,,Overcast,110,2012-12-09 20:29:00
3:53 PM,52.0,51.1,97,29.93,6.0,ESE,4.6,-,0.00,,Mostly Cloudy,120,2012-12-09 20:53:00
4:53 PM,55.9,54.0,93,29.91,9.0,SSE,8.1,-,N/A,,Scattered Clouds,160,2012-12-09 21:53:00
5:53 PM,57.0,54.0,89,29.90,10.0,South,9.2,-,0.00,Rain,Light Rain,170,2012-12-09 22:53:00
6:53 PM,57.9,55.0,90,29.90,7.0,South,8.1,-,0.02,Rain,Light Rain,190,2012-12-09 23:53:00
7:53 PM,59.0,55.0,87,29.88,10.0,South,8.1,-,0.00,,Overcast,170,2012-12-10 00:53:00
8:53 PM,57.9,55.0,90,29.86,10.0,South,8.1,-,N/A,,Overcast,170,2012-12-10 01:53:00
9:53 PM,59.0,55.0,87,29.83,10.0,South,10.4,-,N/A,,Mostly Cloudy,170,2012-12-10 02:53:00
10:53 PM,59.0,55.0,87,29.81,10.0,South,10.4,-,0.01,Rain,Light Rain,170,2012-12-10 03:53:00
11:53 PM,59.0,55.9,90,29.78,6.0,South,5.8,-,0.04,Rain,Light Rain,190,2012-12-10 04:53:00